This is the latest recevied weather packets stored in our database for station/object HA3KE-10. If no packets are shown the sender has not sent any weather packets the latest 10 day(s).
| Time | Temp. | Humidity | Pressure | Rain* | Wind** | Luminosity | Snow |
|---|---|---|---|---|---|---|---|
| 1777712683 | 19.44° C | 36% | 1024.1 hPa | - | - | - | - |
| 1777711783 | 18.89° C | 34% | 1024.1 hPa | - | - | - | - |
| 1777710883 | 18.33° C | 37% | 1024.2 hPa | - | - | - | - |
| 1777709983 | 17.78° C | 39% | 1024.1 hPa | - | - | - | - |
| 1777709083 | 16.67° C | 41% | 1024.4 hPa | - | - | - | - |
| 1777708183 | 16.11° C | 42% | 1024.5 hPa | - | - | - | - |
| 1777707282 | 15.56° C | 43% | 1024.4 hPa | - | - | - | - |
| 1777706382 | 15° C | 43% | 1024.4 hPa | - | - | - | - |
| 1777705484 | 14.44° C | 42% | 1024.5 hPa | - | - | - | - |
| 1777704582 | 13.89° C | 44% | 1024.5 hPa | - | - | - | - |
| 1777703684 | 13.33° C | 43% | 1024.4 hPa | - | - | - | - |
| 1777702782 | 12.78° C | 42% | 1024.5 hPa | - | - | - | - |
| 1777701884 | 12.78° C | 45% | 1024.6 hPa | - | - | - | - |
| 1777700979 | 12.22° C | 46% | 1024.5 hPa | - | - | - | - |
| 1777700084 | 11.67° C | 46% | 1024.4 hPa | - | - | - | - |
| 1777699179 | 11.67° C | 47% | 1024.5 hPa | - | - | - | - |
| 1777698284 | 11.11° C | 48% | 1024.4 hPa | - | - | - | - |
| 1777697378 | 11.11° C | 48% | 1024.3 hPa | - | - | - | - |
| 1777696484 | 11.11° C | 48% | 1024.4 hPa | - | - | - | - |
| 1777695583 | 10.56° C | 47% | 1024.3 hPa | - | - | - | - |
| 1777694684 | 11.11° C | 45% | 1024.4 hPa | - | - | - | - |
| 1777693783 | 11.11° C | 44% | 1024.2 hPa | - | - | - | - |
| 1777692884 | 11.11° C | 44% | 1024.2 hPa | - | - | - | - |
| 1777691983 | 10.56° C | 46% | 1024.4 hPa | - | - | - | - |
| 1777691084 | 11.11° C | 44% | 1024.3 hPa | - | - | - | - |
* Rain since midnight (hover to see other rain measurements)
** Current wind speed in m/s (hover to see current wind gust speed)